This is the latest recevied weather packets stored in our database for station/object NQ9F. If no packets are shown the sender has not sent any weather packets the latest 10 day(s).
| Time | Temp. | Humidity | Pressure | Rain* | Wind** | Luminosity | Snow |
|---|---|---|---|---|---|---|---|
| 1777341473 | 27.22° C | 71% | 1009.1 hPa | 0 mm | - | 0 W/m² | - |
| 1777341169 | 27.22° C | 70% | 1009 hPa | 0 mm | - | 0 W/m² | - |
| 1777340866 | 27.78° C | 67% | 1008.7 hPa | 0 mm | - | 0 W/m² | - |
| 1777340565 | 27.78° C | 62% | 1008.6 hPa | 0 mm | - | 0 W/m² | - |
| 1777340261 | 27.78° C | 61% | 1008.5 hPa | 0 mm | - | 0 W/m² | - |
| 1777339958 | 28.33° C | 60% | 1008.3 hPa | 0 mm | - | 0 W/m² | - |
| 1777339656 | 28.33° C | 61% | 1008.1 hPa | 0 mm | - | 0 W/m² | - |
| 1777339353 | 28.89° C | 58% | 1007.9 hPa | 0 mm | - | 1 W/m² | - |
| 1777339051 | 28.89° C | 56% | 1008 hPa | 0 mm | - | 2 W/m² | - |
| 1777338748 | 29.44° C | 52% | 1007.9 hPa | 0 mm | - | 3 W/m² | - |
| 1777338446 | 29.44° C | 51% | 1007.8 hPa | 0 mm | - | 5 W/m² | - |
| 1777338142 | 29.44° C | 52% | 1008 hPa | 0 mm | - | 8 W/m² | - |
| 1777337838 | 29.44° C | 52% | 1007.9 hPa | 0 mm | - | 11 W/m² | - |
| 1777337536 | 30° C | 52% | 1007.7 hPa | 0 mm | - | 15 W/m² | - |
| 1777337232 | 30° C | 53% | 1008.1 hPa | 0 mm | - | 26 W/m² | - |
| 1777336930 | 30° C | 55% | 1007.7 hPa | 0 mm | - | 37 W/m² | - |
| 1777336629 | 30° C | 53% | 1007.9 hPa | 0 mm | - | 48 W/m² | - |
| 1777336327 | 30° C | 52% | 1008 hPa | 0 mm | - | 58 W/m² | - |
| 1777336023 | 30.56° C | 51% | 1008.3 hPa | 0 mm | - | 71 W/m² | - |
| 1777335720 | 30.56° C | 53% | 1008.1 hPa | 0 mm | - | 85 W/m² | - |
| 1777335417 | 31.11° C | 51% | 1008 hPa | 0 mm | - | 99 W/m² | - |
| 1777335115 | 31.11° C | 50% | 1008.3 hPa | 0 mm | - | 111 W/m² | - |
| 1777334812 | 31.67° C | 46% | 1008 hPa | 0 mm | - | 126 W/m² | - |
| 1777334510 | 32.22° C | 43% | 1008.1 hPa | 0 mm | - | 143 W/m² | - |
| 1777334206 | 32.78° C | 45% | 1008.1 hPa | 0 mm | - | 159 W/m² | - |
* Rain latest hour (hover to see other rain measurements)
** Current wind speed in m/s (hover to see current wind gust speed)